* Astronomy

Members Login
Post Info TOPIC: Comet P/2003 O2 = 2012 M1 (LINEAR)


L

Posts: 129966
Date:
Comet 306P/LINEAR
Permalink  
 


Comet 306P/LINEAR is at Opposition (3.260 AU) on the 4th February 2016



__________________


L

Posts: 129966
Date:
Permalink  
 

Comet 306P/LINEAR makes its closest approach to the Earth (0.773 AU) on the 14th October 2014

Ephemeris

Date    TT    R. A. (2000) Decl.     Delta      r    Elong.  Phase   Mag
2014 10 13    04 50 30.3 +37 31 48   0.7727  1.5545   122.3    32.9  20.4
2014 10 14    04 50 24.3 +37 40 25   0.7727  1.5609   123.2    32.3  20.4
2014 10 15    04 50 14.3 +37 48 48   0.7727  1.5673   124.1    31.8  20.4
2014 10 16    04 50 00.3 +37 56 56   0.7728  1.5738   125.1    31.2  20.4
2014 10 17    04 49 42.3 +38 04 48   0.7729  1.5802   126.0    30.7  20.4
2014 10 18    04 49 20.4 +38 12 25   0.7731  1.5868   127.0    30.1  20.4
2014 10 19    04 48 54.5 +38 19 45   0.7735  1.5933   128.0    29.5  20.5
2014 10 20    04 48 24.8 +38 26 48   0.7739  1.5999   128.9    29.0  20.5
2014 10 21    04 47 51.3 +38 33 33   0.7744  1.6065   129.9    28.4  20.5
2014 10 22    04 47 13.9 +38 40 00   0.7750  1.6131   130.9    27.8  20.5
2014 10 23    04 46 32.9 +38 46 09   0.7756  1.6198   131.9    27.2  20.5
2014 10 24    04 45 48.1 +38 51 58   0.7764  1.6264   133.0    26.6  20.6
2014 10 25    04 44 59.9 +38 57 28   0.7774  1.6331   134.0    26.0  20.6
2014 10 26    04 44 08.1 +39 02 37   0.7784  1.6399   135.0    25.4  20.6
2014 10 27    04 43 13.0 +39 07 25   0.7795  1.6466   136.0    24.8  20.6
2014 10 28    04 42 14.6 +39 11 51   0.7808  1.6534   137.1    24.2  20.6
2014 10 29    04 41 13.1 +39 15 55   0.7822  1.6602   138.1    23.5  20.7
2014 10 30    04 40 08.6 +39 19 37   0.7838  1.6671   139.2    22.9  20.7
2014 10 31    04 39 01.2 +39 22 56   0.7855  1.6739   140.2    22.3  20.7


__________________


L

Posts: 129966
Date:
Comet P/2003 O3 (LINEAR)
Permalink  
 


Comet P/2003 O3 (LINEAR) is at Perihelion (1.253 AU) on the 25th July 2014

Ephemeris

Date    TT    R. A. (2000) Decl.     Delta      r     Elong.  Phase   Mag
2014 07 24    02 12 39.4 +13 21 57   0.8203  1.2532    85.4    53.9  18.6
2014 07 25    02 15 48.7 +13 50 39   0.8189  1.2532    85.5    53.9  18.5
2014 07 26    02 18 57.1 +14 19 07   0.8176  1.2533    85.5    53.9  18.5
2014 07 27    02 22 04.7 +14 47 20   0.8163  1.2535    85.6    53.9  18.5
2014 07 28    02 25 11.4 +15 15 17   0.8152  1.2538    85.7    53.9  18.5
2014 07 29    02 28 17.2 +15 42 58   0.8140  1.2542    85.8    53.8  18.5
2014 07 30    02 31 22.1 +16 10 23   0.8130  1.2548    85.9    53.8  18.5
2014 07 31    02 34 26.0 +16 37 32   0.8120  1.2554    86.0    53.8  18.5
2014 08 01    02 37 29.0 +17 04 24   0.8110  1.2562    86.2    53.7  18.5
2014 08 02    02 40 30.9 +17 30 58   0.8101  1.2570    86.3    53.7  18.5
2014 08 03    02 43 31.8 +17 57 16   0.8093  1.2580    86.4    53.6  18.5
2014 08 04    02 46 31.6 +18 23 15   0.8084  1.2591    86.6    53.6  18.5
2014 08 05    02 49 30.4 +18 48 57   0.8077  1.2603    86.7    53.5  18.5
2014 08 06    02 52 28.0 +19 14 21   0.8069  1.2616    86.9    53.4  18.5
2014 08 07    02 55 24.4 +19 39 27   0.8063  1.2630    87.1    53.3  18.5
2014 08 08    02 58 19.7 +20 04 14   0.8056  1.2646    87.3    53.2  18.6
2014 08 09    03 01 13.7 +20 28 43   0.8050  1.2662    87.5    53.1  18.6
2014 08 10    03 04 06.5 +20 52 54   0.8044  1.2680    87.6    53.0  18.6


__________________


L

Posts: 129966
Date:
Comet P/2003 O2 = 2012 M1 (LINEAR)
Permalink  
 


Orbital elements:
    P/2003 O2 = 2012 M1 (LINEAR)
Epoch 2012 June 2.0 TT = JDT 2456080.5
T 2012 June 10.75779 TT                                 MPC
q   1.4989370            (2000.0)            P               Q
n   0.11266871     Peri.   32.85481     +0.94854625     -0.30952468
a   4.2455488      Node   344.74084     +0.20693040     +0.76551181
e   0.6469392      Incl.   14.69021     +0.23966606     +0.56407990
P   8.75
From 438 observations 2003 July 30-2012 June 20

MPEC 2012 - M28



__________________
Page 1 of 1  sorted by
 
Quick Reply

Please log in to post quick replies.



Create your own FREE Forum
Report Abuse
Powered by ActiveBoard